Index of /20260504/WXO-DD/model_rdps/10km/12/062
Name Last modified Size Description
Parent Directory -
20260504T12Z_MSC_RDPS_AbsoluteVorticity_IsbL-0250_RLatLon0.09_PT062H.grib2 2026-05-04 15:05 595K
20260504T12Z_MSC_RDPS_AbsoluteVorticity_IsbL-0500_RLatLon0.09_PT062H.grib2 2026-05-04 15:05 554K
20260504T12Z_MSC_RDPS_AbsoluteVorticity_IsbL-0700_RLatLon0.09_PT062H.grib2 2026-05-04 15:05 612K
20260504T12Z_MSC_RDPS_AbsoluteVorticity_IsbL-0850_RLatLon0.09_PT062H.grib2 2026-05-04 15:05 775K
20260504T12Z_MSC_RDPS_AirTemp_AGL-120m_RLatLon0.09_PT062H.grib2 2026-05-04 15:05 368K
20260504T12Z_MSC_RDPS_AirTemp_AGL-2m_RLatLon0.09_PT062H.grib2 2026-05-04 15:05 621K
20260504T12Z_MSC_RDPS_AirTemp_AGL-40m_RLatLon0.09_PT062H.grib2 2026-05-04 15:05 381K
20260504T12Z_MSC_RDPS_AirTemp_AGL-80m_RLatLon0.09_PT062H.grib2 2026-05-04 15:05 372K
20260504T12Z_MSC_RDPS_AirTemp_IsbL-0001_RLatLon0.09_PT062H.grib2 2026-05-04 15:05 229K
20260504T12Z_MSC_RDPS_AirTemp_IsbL-0005_RLatLon0.09_PT062H.grib2 2026-05-04 15:05 287K
20260504T12Z_MSC_RDPS_AirTemp_IsbL-0010_RLatLon0.09_PT062H.grib2 2026-05-04 15:05 298K
20260504T12Z_MSC_RDPS_AirTemp_IsbL-0020_RLatLon0.09_PT062H.grib2 2026-05-04 15:05 318K
20260504T12Z_MSC_RDPS_AirTemp_IsbL-0030_RLatLon0.09_PT062H.grib2 2026-05-04 15:05 335K
20260504T12Z_MSC_RDPS_AirTemp_IsbL-0050_RLatLon0.09_PT062H.grib2 2026-05-04 15:05 311K
20260504T12Z_MSC_RDPS_AirTemp_IsbL-0100_RLatLon0.09_PT062H.grib2 2026-05-04 15:05 419K
20260504T12Z_MSC_RDPS_AirTemp_IsbL-0150_RLatLon0.09_PT062H.grib2 2026-05-04 15:05 409K
20260504T12Z_MSC_RDPS_AirTemp_IsbL-0175_RLatLon0.09_PT062H.grib2 2026-05-04 15:05 405K
20260504T12Z_MSC_RDPS_AirTemp_IsbL-0200_RLatLon0.09_PT062H.grib2 2026-05-04 15:05 411K
20260504T12Z_MSC_RDPS_AirTemp_IsbL-0225_RLatLon0.09_PT062H.grib2 2026-05-04 15:05 414K
20260504T12Z_MSC_RDPS_AirTemp_IsbL-0250_RLatLon0.09_PT062H.grib2 2026-05-04 15:05 420K
20260504T12Z_MSC_RDPS_AirTemp_IsbL-0275_RLatLon0.09_PT062H.grib2 2026-05-04 15:05 399K
20260504T12Z_MSC_RDPS_AirTemp_IsbL-0300_RLatLon0.09_PT062H.grib2 2026-05-04 15:05 406K
20260504T12Z_MSC_RDPS_AirTemp_IsbL-0350_RLatLon0.09_PT062H.grib2 2026-05-04 15:05 421K
20260504T12Z_MSC_RDPS_AirTemp_IsbL-0400_RLatLon0.09_PT062H.grib2 2026-05-04 15:05 424K
20260504T12Z_MSC_RDPS_AirTemp_IsbL-0450_RLatLon0.09_PT062H.grib2 2026-05-04 15:05 431K
20260504T12Z_MSC_RDPS_AirTemp_IsbL-0500_RLatLon0.09_PT062H.grib2 2026-05-04 15:05 440K
20260504T12Z_MSC_RDPS_AirTemp_IsbL-0550_RLatLon0.09_PT062H.grib2 2026-05-04 15:05 421K
20260504T12Z_MSC_RDPS_AirTemp_IsbL-0600_RLatLon0.09_PT062H.grib2 2026-05-04 15:05 439K
20260504T12Z_MSC_RDPS_AirTemp_IsbL-0650_RLatLon0.09_PT062H.grib2 2026-05-04 15:05 454K
20260504T12Z_MSC_RDPS_AirTemp_IsbL-0700_RLatLon0.09_PT062H.grib2 2026-05-04 15:05 477K
20260504T12Z_MSC_RDPS_AirTemp_IsbL-0750_RLatLon0.09_PT062H.grib2 2026-05-04 15:05 514K
20260504T12Z_MSC_RDPS_AirTemp_IsbL-0800_RLatLon0.09_PT062H.grib2 2026-05-04 15:05 445K
20260504T12Z_MSC_RDPS_AirTemp_IsbL-0850_RLatLon0.09_PT062H.grib2 2026-05-04 15:05 492K
20260504T12Z_MSC_RDPS_AirTemp_IsbL-0875_RLatLon0.09_PT062H.grib2 2026-05-04 15:05 513K
20260504T12Z_MSC_RDPS_AirTemp_IsbL-0900_RLatLon0.09_PT062H.grib2 2026-05-04 15:05 521K
20260504T12Z_MSC_RDPS_AirTemp_IsbL-0925_RLatLon0.09_PT062H.grib2 2026-05-04 15:05 518K
20260504T12Z_MSC_RDPS_AirTemp_IsbL-0950_RLatLon0.09_PT062H.grib2 2026-05-04 15:05 514K
20260504T12Z_MSC_RDPS_AirTemp_IsbL-0970_RLatLon0.09_PT062H.grib2 2026-05-04 15:05 509K
20260504T12Z_MSC_RDPS_AirTemp_IsbL-0985_RLatLon0.09_PT062H.grib2 2026-05-04 15:05 499K
20260504T12Z_MSC_RDPS_AirTemp_IsbL-1000_RLatLon0.09_PT062H.grib2 2026-05-04 15:05 481K
20260504T12Z_MSC_RDPS_AirTemp_IsbL-1015_RLatLon0.09_PT062H.grib2 2026-05-04 15:05 482K
20260504T12Z_MSC_RDPS_Albedo_Sfc_RLatLon0.09_PT062H.grib2 2026-05-04 15:05 159K
20260504T12Z_MSC_RDPS_CAPE_Sfc_RLatLon0.09_PT062H.grib2 2026-05-04 15:05 1.7M
20260504T12Z_MSC_RDPS_CIN_Sfc_RLatLon0.09_PT062H.grib2 2026-05-04 15:05 1.2M
20260504T12Z_MSC_RDPS_CloudWater_EAtm_RLatLon0.09_PT062H.grib2 2026-05-04 15:05 223K
20260504T12Z_MSC_RDPS_ConvectivePrecip-Accum_Sfc_RLatLon0.09_PT062H.grib2 2026-05-04 15:05 1.1M
20260504T12Z_MSC_RDPS_DewPointDepression_AGL-2m_RLatLon0.09_PT062H.grib2 2026-05-04 15:05 405K
20260504T12Z_MSC_RDPS_DewPointDepression_IsbL-0001_RLatLon0.09_PT062H.grib2 2026-05-04 15:05 193
20260504T12Z_MSC_RDPS_DewPointDepression_IsbL-0005_RLatLon0.09_PT062H.grib2 2026-05-04 15:05 193
20260504T12Z_MSC_RDPS_DewPointDepression_IsbL-0010_RLatLon0.09_PT062H.grib2 2026-05-04 15:05 193
20260504T12Z_MSC_RDPS_DewPointDepression_IsbL-0020_RLatLon0.09_PT062H.grib2 2026-05-04 15:05 193
20260504T12Z_MSC_RDPS_DewPointDepression_IsbL-0030_RLatLon0.09_PT062H.grib2 2026-05-04 15:05 193
20260504T12Z_MSC_RDPS_DewPointDepression_IsbL-0050_RLatLon0.09_PT062H.grib2 2026-05-04 15:05 78K
20260504T12Z_MSC_RDPS_DewPointDepression_IsbL-0100_RLatLon0.09_PT062H.grib2 2026-05-04 15:05 114K
20260504T12Z_MSC_RDPS_DewPointDepression_IsbL-0150_RLatLon0.09_PT062H.grib2 2026-05-04 15:05 140K
20260504T12Z_MSC_RDPS_DewPointDepression_IsbL-0175_RLatLon0.09_PT062H.grib2 2026-05-04 15:05 185K
20260504T12Z_MSC_RDPS_DewPointDepression_IsbL-0200_RLatLon0.09_PT062H.grib2 2026-05-04 15:05 226K
20260504T12Z_MSC_RDPS_DewPointDepression_IsbL-0225_RLatLon0.09_PT062H.grib2 2026-05-04 15:05 256K
20260504T12Z_MSC_RDPS_DewPointDepression_IsbL-0250_RLatLon0.09_PT062H.grib2 2026-05-04 15:05 300K
20260504T12Z_MSC_RDPS_DewPointDepression_IsbL-0275_RLatLon0.09_PT062H.grib2 2026-05-04 15:05 308K
20260504T12Z_MSC_RDPS_DewPointDepression_IsbL-0300_RLatLon0.09_PT062H.grib2 2026-05-04 15:05 325K
20260504T12Z_MSC_RDPS_DewPointDepression_IsbL-0350_RLatLon0.09_PT062H.grib2 2026-05-04 15:05 334K
20260504T12Z_MSC_RDPS_DewPointDepression_IsbL-0400_RLatLon0.09_PT062H.grib2 2026-05-04 15:05 344K
20260504T12Z_MSC_RDPS_DewPointDepression_IsbL-0450_RLatLon0.09_PT062H.grib2 2026-05-04 15:05 348K
20260504T12Z_MSC_RDPS_DewPointDepression_IsbL-0500_RLatLon0.09_PT062H.grib2 2026-05-04 15:05 350K
20260504T12Z_MSC_RDPS_DewPointDepression_IsbL-0550_RLatLon0.09_PT062H.grib2 2026-05-04 15:05 359K
20260504T12Z_MSC_RDPS_DewPointDepression_IsbL-0600_RLatLon0.09_PT062H.grib2 2026-05-04 15:05 367K
20260504T12Z_MSC_RDPS_DewPointDepression_IsbL-0650_RLatLon0.09_PT062H.grib2 2026-05-04 15:05 371K
20260504T12Z_MSC_RDPS_DewPointDepression_IsbL-0700_RLatLon0.09_PT062H.grib2 2026-05-04 15:05 380K
20260504T12Z_MSC_RDPS_DewPointDepression_IsbL-0750_RLatLon0.09_PT062H.grib2 2026-05-04 15:05 401K
20260504T12Z_MSC_RDPS_DewPointDepression_IsbL-0800_RLatLon0.09_PT062H.grib2 2026-05-04 15:05 441K
20260504T12Z_MSC_RDPS_DewPointDepression_IsbL-0850_RLatLon0.09_PT062H.grib2 2026-05-04 15:05 472K
20260504T12Z_MSC_RDPS_DewPointDepression_IsbL-0875_RLatLon0.09_PT062H.grib2 2026-05-04 15:05 474K
20260504T12Z_MSC_RDPS_DewPointDepression_IsbL-0900_RLatLon0.09_PT062H.grib2 2026-05-04 15:05 466K
20260504T12Z_MSC_RDPS_DewPointDepression_IsbL-0925_RLatLon0.09_PT062H.grib2 2026-05-04 15:05 454K
20260504T12Z_MSC_RDPS_DewPointDepression_IsbL-0950_RLatLon0.09_PT062H.grib2 2026-05-04 15:05 443K
20260504T12Z_MSC_RDPS_DewPointDepression_IsbL-0970_RLatLon0.09_PT062H.grib2 2026-05-04 15:05 433K
20260504T12Z_MSC_RDPS_DewPointDepression_IsbL-0985_RLatLon0.09_PT062H.grib2 2026-05-04 15:05 430K
20260504T12Z_MSC_RDPS_DewPointDepression_IsbL-1000_RLatLon0.09_PT062H.grib2 2026-05-04 15:05 424K
20260504T12Z_MSC_RDPS_DewPointDepression_IsbL-1015_RLatLon0.09_PT062H.grib2 2026-05-04 15:05 413K
20260504T12Z_MSC_RDPS_DewPoint_AGL-2m_RLatLon0.09_PT062H.grib2 2026-05-04 15:05 392K
20260504T12Z_MSC_RDPS_DownwardLongwaveRadiationFlux-Accum_Sfc_RLatLon0.09_PT062H.grib2 2026-05-04 15:05 413K
20260504T12Z_MSC_RDPS_DownwardShortwaveRadiationFlux-Accum_NTAtm_RLatLon0.09_PT062H.grib2 2026-05-04 15:05 113K
20260504T12Z_MSC_RDPS_DownwardShortwaveRadiationFlux-Accum_Sfc_RLatLon0.09_PT062H.grib2 2026-05-04 15:05 623K
20260504T12Z_MSC_RDPS_FreezingRain-Accum1h_Sfc_RLatLon0.09_PT062H.grib2 2026-05-04 15:05 29K
20260504T12Z_MSC_RDPS_FreezingRain-Accum_Sfc_RLatLon0.09_PT062H.grib2 2026-05-04 15:05 178K
20260504T12Z_MSC_RDPS_GeopotentialHeight_IsbL-0001_RLatLon0.09_PT062H.grib2 2026-05-04 15:05 308K
20260504T12Z_MSC_RDPS_GeopotentialHeight_IsbL-0005_RLatLon0.09_PT062H.grib2 2026-05-04 15:05 334K
20260504T12Z_MSC_RDPS_GeopotentialHeight_IsbL-0010_RLatLon0.09_PT062H.grib2 2026-05-04 15:05 335K
20260504T12Z_MSC_RDPS_GeopotentialHeight_IsbL-0020_RLatLon0.09_PT062H.grib2 2026-05-04 15:05 301K
20260504T12Z_MSC_RDPS_GeopotentialHeight_IsbL-0030_RLatLon0.09_PT062H.grib2 2026-05-04 15:05 304K
20260504T12Z_MSC_RDPS_GeopotentialHeight_IsbL-0050_RLatLon0.09_PT062H.grib2 2026-05-04 15:05 305K
20260504T12Z_MSC_RDPS_GeopotentialHeight_IsbL-0100_RLatLon0.09_PT062H.grib2 2026-05-04 15:05 283K
20260504T12Z_MSC_RDPS_GeopotentialHeight_IsbL-0150_RLatLon0.09_PT062H.grib2 2026-05-04 15:05 227K
20260504T12Z_MSC_RDPS_GeopotentialHeight_IsbL-0175_RLatLon0.09_PT062H.grib2 2026-05-04 15:05 229K
20260504T12Z_MSC_RDPS_GeopotentialHeight_IsbL-0200_RLatLon0.09_PT062H.grib2 2026-05-04 15:05 233K
20260504T12Z_MSC_RDPS_GeopotentialHeight_IsbL-0225_RLatLon0.09_PT062H.grib2 2026-05-04 15:05 266K
20260504T12Z_MSC_RDPS_GeopotentialHeight_IsbL-0250_RLatLon0.09_PT062H.grib2 2026-05-04 15:05 267K
20260504T12Z_MSC_RDPS_GeopotentialHeight_IsbL-0275_RLatLon0.09_PT062H.grib2 2026-05-04 15:05 236K
20260504T12Z_MSC_RDPS_GeopotentialHeight_IsbL-0300_RLatLon0.09_PT062H.grib2 2026-05-04 15:05 236K
20260504T12Z_MSC_RDPS_GeopotentialHeight_IsbL-0350_RLatLon0.09_PT062H.grib2 2026-05-04 15:05 232K
20260504T12Z_MSC_RDPS_GeopotentialHeight_IsbL-0400_RLatLon0.09_PT062H.grib2 2026-05-04 15:05 228K
20260504T12Z_MSC_RDPS_GeopotentialHeight_IsbL-0450_RLatLon0.09_PT062H.grib2 2026-05-04 15:05 295K
20260504T12Z_MSC_RDPS_GeopotentialHeight_IsbL-0500_RLatLon0.09_PT062H.grib2 2026-05-04 15:05 290K
20260504T12Z_MSC_RDPS_GeopotentialHeight_IsbL-0550_RLatLon0.09_PT062H.grib2 2026-05-04 15:05 287K
20260504T12Z_MSC_RDPS_GeopotentialHeight_IsbL-0600_RLatLon0.09_PT062H.grib2 2026-05-04 15:05 284K
20260504T12Z_MSC_RDPS_GeopotentialHeight_IsbL-0650_RLatLon0.09_PT062H.grib2 2026-05-04 15:05 254K
20260504T12Z_MSC_RDPS_GeopotentialHeight_IsbL-0700_RLatLon0.09_PT062H.grib2 2026-05-04 15:05 335K
20260504T12Z_MSC_RDPS_GeopotentialHeight_IsbL-0750_RLatLon0.09_PT062H.grib2 2026-05-04 15:05 337K
20260504T12Z_MSC_RDPS_GeopotentialHeight_IsbL-0800_RLatLon0.09_PT062H.grib2 2026-05-04 15:05 343K
20260504T12Z_MSC_RDPS_GeopotentialHeight_IsbL-0850_RLatLon0.09_PT062H.grib2 2026-05-04 15:05 383K
20260504T12Z_MSC_RDPS_GeopotentialHeight_IsbL-0875_RLatLon0.09_PT062H.grib2 2026-05-04 15:05 385K
20260504T12Z_MSC_RDPS_GeopotentialHeight_IsbL-0900_RLatLon0.09_PT062H.grib2 2026-05-04 15:05 389K
20260504T12Z_MSC_RDPS_GeopotentialHeight_IsbL-0925_RLatLon0.09_PT062H.grib2 2026-05-04 15:05 391K
20260504T12Z_MSC_RDPS_GeopotentialHeight_IsbL-0950_RLatLon0.09_PT062H.grib2 2026-05-04 15:05 394K
20260504T12Z_MSC_RDPS_GeopotentialHeight_IsbL-0970_RLatLon0.09_PT062H.grib2 2026-05-04 15:05 366K
20260504T12Z_MSC_RDPS_GeopotentialHeight_IsbL-0985_RLatLon0.09_PT062H.grib2 2026-05-04 15:05 373K
20260504T12Z_MSC_RDPS_GeopotentialHeight_IsbL-1000_RLatLon0.09_PT062H.grib2 2026-05-04 15:05 384K
20260504T12Z_MSC_RDPS_GeopotentialHeight_IsbL-1015_RLatLon0.09_PT062H.grib2 2026-05-04 15:05 398K
20260504T12Z_MSC_RDPS_Humidex_Sfc_RLatLon0.09_PT062H.grib2 2026-05-04 15:05 2.4M
20260504T12Z_MSC_RDPS_IcePellets-Accum1h_Sfc_RLatLon0.09_PT062H.grib2 2026-05-04 15:05 5.2K
20260504T12Z_MSC_RDPS_IcePellets-Accum_Sfc_RLatLon0.09_PT062H.grib2 2026-05-04 15:05 38K
20260504T12Z_MSC_RDPS_KIndex_Sfc_RLatLon0.09_PT062H.grib2 2026-05-04 15:05 2.5M
20260504T12Z_MSC_RDPS_LatentHeatNetFlux_Sfc_RLatLon0.09_PT062H.grib2 2026-05-04 15:05 327K
20260504T12Z_MSC_RDPS_LiftedIndex-MU-VT_IsbL-0500_RLatLon0.09_PT062H.grib2 2026-05-04 15:05 2.4M
20260504T12Z_MSC_RDPS_NetLongwaveRadiationFlux-Accum_Sfc_RLatLon0.09_PT062H.grib2 2026-05-04 15:05 594K
20260504T12Z_MSC_RDPS_NetShortwaveRadiationFlux-Accum_Sfc_RLatLon0.09_PT062H.grib2 2026-05-04 15:05 620K
20260504T12Z_MSC_RDPS_PlanetaryBoundaryLayerHeight_Sfc_RLatLon0.09_PT062H.grib2 2026-05-04 15:05 1.1M
20260504T12Z_MSC_RDPS_Precip-Accum1h_Sfc_RLatLon0.09_PT062H.grib2 2026-05-04 15:05 1.2M
20260504T12Z_MSC_RDPS_Precip-Accum_Sfc_RLatLon0.09_PT062H.grib2 2026-05-04 15:05 2.2M
20260504T12Z_MSC_RDPS_PrecipRate_Sfc_RLatLon0.09_PT062H.grib2 2026-05-04 15:05 175K
20260504T12Z_MSC_RDPS_PrecipType-Instant_Sfc_RLatLon0.09_PT062H.grib2 2026-05-04 15:05 569K
20260504T12Z_MSC_RDPS_Pressure-Trend3h_Sfc_RLatLon0.09_PT062H.grib2 2026-05-04 15:05 1.2M
20260504T12Z_MSC_RDPS_Pressure_MSL_RLatLon0.09_PT062H.grib2 2026-05-04 15:05 288K
20260504T12Z_MSC_RDPS_Pressure_PVU-1.5_RLatLon0.09_PT062H.grib2 2026-05-04 15:05 2.3M
20260504T12Z_MSC_RDPS_Pressure_PVU-1_RLatLon0.09_PT062H.grib2 2026-05-04 15:05 2.4M
20260504T12Z_MSC_RDPS_Pressure_PVU-2_RLatLon0.09_PT062H.grib2 2026-05-04 15:05 2.4M
20260504T12Z_MSC_RDPS_Pressure_Sfc_RLatLon0.09_PT062H.grib2 2026-05-04 15:05 496K
20260504T12Z_MSC_RDPS_RadiativeTemp_Sfc_RLatLon0.09_PT062H.grib2 2026-05-04 15:05 304K
20260504T12Z_MSC_RDPS_Rain-Accum1h_Sfc_RLatLon0.09_PT062H.grib2 2026-05-04 15:05 602K
20260504T12Z_MSC_RDPS_Rain-Accum_Sfc_RLatLon0.09_PT062H.grib2 2026-05-04 15:05 1.8M
20260504T12Z_MSC_RDPS_RelativeHumidity_AGL-2m_RLatLon0.09_PT062H.grib2 2026-05-04 15:05 1.0M
20260504T12Z_MSC_RDPS_RelativeHumidity_IsbL-0010_RLatLon0.09_PT062H.grib2 2026-05-04 15:05 682K
20260504T12Z_MSC_RDPS_RelativeHumidity_IsbL-0020_RLatLon0.09_PT062H.grib2 2026-05-04 15:05 644K
20260504T12Z_MSC_RDPS_RelativeHumidity_IsbL-0030_RLatLon0.09_PT062H.grib2 2026-05-04 15:05 598K
20260504T12Z_MSC_RDPS_RelativeHumidity_IsbL-0050_RLatLon0.09_PT062H.grib2 2026-05-04 15:05 355K
20260504T12Z_MSC_RDPS_RelativeHumidity_IsbL-0100_RLatLon0.09_PT062H.grib2 2026-05-04 15:05 276K
20260504T12Z_MSC_RDPS_RelativeHumidity_IsbL-0150_RLatLon0.09_PT062H.grib2 2026-05-04 15:05 413K
20260504T12Z_MSC_RDPS_RelativeHumidity_IsbL-0175_RLatLon0.09_PT062H.grib2 2026-05-04 15:05 474K
20260504T12Z_MSC_RDPS_RelativeHumidity_IsbL-0200_RLatLon0.09_PT062H.grib2 2026-05-04 15:05 548K
20260504T12Z_MSC_RDPS_RelativeHumidity_IsbL-0225_RLatLon0.09_PT062H.grib2 2026-05-04 15:05 612K
20260504T12Z_MSC_RDPS_RelativeHumidity_IsbL-0250_RLatLon0.09_PT062H.grib2 2026-05-04 15:05 677K
20260504T12Z_MSC_RDPS_RelativeHumidity_IsbL-0275_RLatLon0.09_PT062H.grib2 2026-05-04 15:05 703K
20260504T12Z_MSC_RDPS_RelativeHumidity_IsbL-0300_RLatLon0.09_PT062H.grib2 2026-05-04 15:05 748K
20260504T12Z_MSC_RDPS_RelativeHumidity_IsbL-0350_RLatLon0.09_PT062H.grib2 2026-05-04 15:05 775K
20260504T12Z_MSC_RDPS_RelativeHumidity_IsbL-0400_RLatLon0.09_PT062H.grib2 2026-05-04 15:05 790K
20260504T12Z_MSC_RDPS_RelativeHumidity_IsbL-0450_RLatLon0.09_PT062H.grib2 2026-05-04 15:05 794K
20260504T12Z_MSC_RDPS_RelativeHumidity_IsbL-0500_RLatLon0.09_PT062H.grib2 2026-05-04 15:05 795K
20260504T12Z_MSC_RDPS_RelativeHumidity_IsbL-0550_RLatLon0.09_PT062H.grib2 2026-05-04 15:05 810K
20260504T12Z_MSC_RDPS_RelativeHumidity_IsbL-0600_RLatLon0.09_PT062H.grib2 2026-05-04 15:05 826K
20260504T12Z_MSC_RDPS_RelativeHumidity_IsbL-0650_RLatLon0.09_PT062H.grib2 2026-05-04 15:05 839K
20260504T12Z_MSC_RDPS_RelativeHumidity_IsbL-0700_RLatLon0.09_PT062H.grib2 2026-05-04 15:05 863K
20260504T12Z_MSC_RDPS_RelativeHumidity_IsbL-0750_RLatLon0.09_PT062H.grib2 2026-05-04 15:05 905K
20260504T12Z_MSC_RDPS_RelativeHumidity_IsbL-0800_RLatLon0.09_PT062H.grib2 2026-05-04 15:05 1.0M
20260504T12Z_MSC_RDPS_RelativeHumidity_IsbL-0850_RLatLon0.09_PT062H.grib2 2026-05-04 15:05 1.0M
20260504T12Z_MSC_RDPS_RelativeHumidity_IsbL-0875_RLatLon0.09_PT062H.grib2 2026-05-04 15:05 1.0M
20260504T12Z_MSC_RDPS_RelativeHumidity_IsbL-0900_RLatLon0.09_PT062H.grib2 2026-05-04 15:05 1.1M
20260504T12Z_MSC_RDPS_RelativeHumidity_IsbL-0925_RLatLon0.09_PT062H.grib2 2026-05-04 15:05 1.1M
20260504T12Z_MSC_RDPS_RelativeHumidity_IsbL-0950_RLatLon0.09_PT062H.grib2 2026-05-04 15:05 1.1M
20260504T12Z_MSC_RDPS_RelativeHumidity_IsbL-0970_RLatLon0.09_PT062H.grib2 2026-05-04 15:05 1.0M
20260504T12Z_MSC_RDPS_RelativeHumidity_IsbL-0985_RLatLon0.09_PT062H.grib2 2026-05-04 15:05 1.0M
20260504T12Z_MSC_RDPS_RelativeHumidity_IsbL-1000_RLatLon0.09_PT062H.grib2 2026-05-04 15:05 1.0M
20260504T12Z_MSC_RDPS_RelativeHumidity_IsbL-1015_RLatLon0.09_PT062H.grib2 2026-05-04 15:05 1.0M
20260504T12Z_MSC_RDPS_Runoff-Accum_Sfc_RLatLon0.09_PT062H.grib2 2026-05-04 15:05 63K
20260504T12Z_MSC_RDPS_SWEATIndex_Sfc_RLatLon0.09_PT062H.grib2 2026-05-04 15:05 2.4M
20260504T12Z_MSC_RDPS_SeeingIndex_EAtm_RLatLon0.09_PT062H.grib2 2026-05-04 15:05 1.0M
20260504T12Z_MSC_RDPS_SensibleHeatNetFlux_Sfc_RLatLon0.09_PT062H.grib2 2026-05-04 15:05 212K
20260504T12Z_MSC_RDPS_ShowalterIndex_IsbL-0500_RLatLon0.09_PT062H.grib2 2026-05-04 15:05 2.6M
20260504T12Z_MSC_RDPS_SkyTransparencyIndex_EAtm_RLatLon0.09_PT062H.grib2 2026-05-04 15:05 731K
20260504T12Z_MSC_RDPS_Snow-Accum1h_Sfc_RLatLon0.09_PT062H.grib2 2026-05-04 15:05 517K
20260504T12Z_MSC_RDPS_Snow-Accum_Sfc_RLatLon0.09_PT062H.grib2 2026-05-04 15:05 776K
20260504T12Z_MSC_RDPS_SnowDensity_Sfc_RLatLon0.09_PT062H.grib2 2026-05-04 15:05 176K
20260504T12Z_MSC_RDPS_SnowDepth_Sfc_RLatLon0.09_PT062H.grib2 2026-05-04 15:05 649K
20260504T12Z_MSC_RDPS_SoilTemp_DBS-0to10cm_RLatLon0.09_PT062H.grib2 2026-05-04 15:05 247K
20260504T12Z_MSC_RDPS_SoilTemp_Sfc_RLatLon0.09_PT062H.grib2 2026-05-04 15:05 273K
20260504T12Z_MSC_RDPS_SoilVolumetricIceContent_Sfc_RLatLon0.09_PT062H.grib2 2026-05-04 15:05 150K
20260504T12Z_MSC_RDPS_SoilVolumetricWaterContent_DBS-0to10cm_RLatLon0.09_PT062H.grib2 2026-05-04 15:05 282K
20260504T12Z_MSC_RDPS_SoilVolumetricWaterContent_DBS-0to1cm_RLatLon0.09_PT062H.grib2 2026-05-04 15:05 345K
20260504T12Z_MSC_RDPS_SpecificHumidity_AGL-120m_RLatLon0.09_PT062H.grib2 2026-05-04 15:05 488K
20260504T12Z_MSC_RDPS_SpecificHumidity_AGL-2m_RLatLon0.09_PT062H.grib2 2026-05-04 15:05 658K
20260504T12Z_MSC_RDPS_SpecificHumidity_AGL-40m_RLatLon0.09_PT062H.grib2 2026-05-04 15:05 494K
20260504T12Z_MSC_RDPS_SpecificHumidity_AGL-80m_RLatLon0.09_PT062H.grib2 2026-05-04 15:05 489K
20260504T12Z_MSC_RDPS_SpecificHumidity_IsbL-0001_RLatLon0.09_PT062H.grib2 2026-05-04 15:05 370K
20260504T12Z_MSC_RDPS_SpecificHumidity_IsbL-0005_RLatLon0.09_PT062H.grib2 2026-05-04 15:05 369K
20260504T12Z_MSC_RDPS_SpecificHumidity_IsbL-0010_RLatLon0.09_PT062H.grib2 2026-05-04 15:05 401K
20260504T12Z_MSC_RDPS_SpecificHumidity_IsbL-0020_RLatLon0.09_PT062H.grib2 2026-05-04 15:05 379K
20260504T12Z_MSC_RDPS_SpecificHumidity_IsbL-0030_RLatLon0.09_PT062H.grib2 2026-05-04 15:05 364K
20260504T12Z_MSC_RDPS_SpecificHumidity_IsbL-0050_RLatLon0.09_PT062H.grib2 2026-05-04 15:05 471K
20260504T12Z_MSC_RDPS_SpecificHumidity_IsbL-0100_RLatLon0.09_PT062H.grib2 2026-05-04 15:05 422K
20260504T12Z_MSC_RDPS_SpecificHumidity_IsbL-0150_RLatLon0.09_PT062H.grib2 2026-05-04 15:05 461K
20260504T12Z_MSC_RDPS_SpecificHumidity_IsbL-0175_RLatLon0.09_PT062H.grib2 2026-05-04 15:05 445K
20260504T12Z_MSC_RDPS_SpecificHumidity_IsbL-0200_RLatLon0.09_PT062H.grib2 2026-05-04 15:05 472K
20260504T12Z_MSC_RDPS_SpecificHumidity_IsbL-0225_RLatLon0.09_PT062H.grib2 2026-05-04 15:05 452K
20260504T12Z_MSC_RDPS_SpecificHumidity_IsbL-0250_RLatLon0.09_PT062H.grib2 2026-05-04 15:05 555K
20260504T12Z_MSC_RDPS_SpecificHumidity_IsbL-0275_RLatLon0.09_PT062H.grib2 2026-05-04 15:05 472K
20260504T12Z_MSC_RDPS_SpecificHumidity_IsbL-0300_RLatLon0.09_PT062H.grib2 2026-05-04 15:05 544K
20260504T12Z_MSC_RDPS_SpecificHumidity_IsbL-0350_RLatLon0.09_PT062H.grib2 2026-05-04 15:05 541K
20260504T12Z_MSC_RDPS_SpecificHumidity_IsbL-0400_RLatLon0.09_PT062H.grib2 2026-05-04 15:05 525K
20260504T12Z_MSC_RDPS_SpecificHumidity_IsbL-0450_RLatLon0.09_PT062H.grib2 2026-05-04 15:05 575K
20260504T12Z_MSC_RDPS_SpecificHumidity_IsbL-0500_RLatLon0.09_PT062H.grib2 2026-05-04 15:05 505K
20260504T12Z_MSC_RDPS_SpecificHumidity_IsbL-0550_RLatLon0.09_PT062H.grib2 2026-05-04 15:05 560K
20260504T12Z_MSC_RDPS_SpecificHumidity_IsbL-0600_RLatLon0.09_PT062H.grib2 2026-05-04 15:05 627K
20260504T12Z_MSC_RDPS_SpecificHumidity_IsbL-0650_RLatLon0.09_PT062H.grib2 2026-05-04 15:05 545K
20260504T12Z_MSC_RDPS_SpecificHumidity_IsbL-0700_RLatLon0.09_PT062H.grib2 2026-05-04 15:05 587K
20260504T12Z_MSC_RDPS_SpecificHumidity_IsbL-0750_RLatLon0.09_PT062H.grib2 2026-05-04 15:05 641K
20260504T12Z_MSC_RDPS_SpecificHumidity_IsbL-0800_RLatLon0.09_PT062H.grib2 2026-05-04 15:05 728K
20260504T12Z_MSC_RDPS_SpecificHumidity_IsbL-0850_RLatLon0.09_PT062H.grib2 2026-05-04 15:05 806K
20260504T12Z_MSC_RDPS_SpecificHumidity_IsbL-0875_RLatLon0.09_PT062H.grib2 2026-05-04 15:05 695K
20260504T12Z_MSC_RDPS_SpecificHumidity_IsbL-0900_RLatLon0.09_PT062H.grib2 2026-05-04 15:05 708K
20260504T12Z_MSC_RDPS_SpecificHumidity_IsbL-0925_RLatLon0.09_PT062H.grib2 2026-05-04 15:05 710K
20260504T12Z_MSC_RDPS_SpecificHumidity_IsbL-0950_RLatLon0.09_PT062H.grib2 2026-05-04 15:05 709K
20260504T12Z_MSC_RDPS_SpecificHumidity_IsbL-0970_RLatLon0.09_PT062H.grib2 2026-05-04 15:05 698K
20260504T12Z_MSC_RDPS_SpecificHumidity_IsbL-0985_RLatLon0.09_PT062H.grib2 2026-05-04 15:05 690K
20260504T12Z_MSC_RDPS_SpecificHumidity_IsbL-1000_RLatLon0.09_PT062H.grib2 2026-05-04 15:05 683K
20260504T12Z_MSC_RDPS_SpecificHumidity_IsbL-1015_RLatLon0.09_PT062H.grib2 2026-05-04 15:05 672K
20260504T12Z_MSC_RDPS_SpecificHumidity_Sfc_RLatLon0.09_PT062H.grib2 2026-05-04 15:05 322K
20260504T12Z_MSC_RDPS_StormRelativeHelicity_EtaL-10000_RLatLon0.09_PT062H.grib2 2026-05-04 15:05 1.1M
20260504T12Z_MSC_RDPS_StormSeverityIndex_EtaL-10000_RLatLon0.09_PT062H.grib2 2026-05-04 15:05 1.2M
20260504T12Z_MSC_RDPS_Thickness_IsbL-0850to0700_RLatLon0.09_PT062H.grib2 2026-05-04 15:05 172K
20260504T12Z_MSC_RDPS_Thickness_IsbL-1000to0500_RLatLon0.09_PT062H.grib2 2026-05-04 15:05 192K
20260504T12Z_MSC_RDPS_Thickness_IsbL-1000to0850_RLatLon0.09_PT062H.grib2 2026-05-04 15:05 255K
20260504T12Z_MSC_RDPS_TotalCloudCover_Sfc_RLatLon0.09_PT062H.grib2 2026-05-04 15:05 664K
20260504T12Z_MSC_RDPS_TotalTotalsIndex_Sfc_RLatLon0.09_PT062H.grib2 2026-05-04 15:05 2.4M
20260504T12Z_MSC_RDPS_UVIndex-ClearSky_Sfc_RLatLon0.09_PT062H.grib2 2026-05-04 15:05 122K
20260504T12Z_MSC_RDPS_UVIndex_Sfc_RLatLon0.09_PT062H.grib2 2026-05-04 15:05 257K
20260504T12Z_MSC_RDPS_UpwardLongwaveRadiationFlux_NTAtm_RLatLon0.09_PT062H.grib2 2026-05-04 15:05 489K
20260504T12Z_MSC_RDPS_UpwardShortwaveRadiationFlux_NTAtm_RLatLon0.09_PT062H.grib2 2026-05-04 15:05 240K
20260504T12Z_MSC_RDPS_VerticalVelocity_IsbL-0250_RLatLon0.09_PT062H.grib2 2026-05-04 15:05 718K
20260504T12Z_MSC_RDPS_VerticalVelocity_IsbL-0500_RLatLon0.09_PT062H.grib2 2026-05-04 15:05 542K
20260504T12Z_MSC_RDPS_VerticalVelocity_IsbL-0700_RLatLon0.09_PT062H.grib2 2026-05-04 15:05 588K
20260504T12Z_MSC_RDPS_VerticalVelocity_IsbL-0850_RLatLon0.09_PT062H.grib2 2026-05-04 15:05 689K
20260504T12Z_MSC_RDPS_VerticalWindShear_EtaL-6500_RLatLon0.09_PT062H.grib2 2026-05-04 15:05 1.2M
20260504T12Z_MSC_RDPS_WindChill_Sfc_RLatLon0.09_PT062H.grib2 2026-05-04 15:05 1.1M
20260504T12Z_MSC_RDPS_WindDir_AGL-10m_RLatLon0.09_PT062H.grib2 2026-05-04 15:05 944K
20260504T12Z_MSC_RDPS_WindDir_AGL-120m_RLatLon0.09_PT062H.grib2 2026-05-04 15:05 588K
20260504T12Z_MSC_RDPS_WindDir_AGL-40m_RLatLon0.09_PT062H.grib2 2026-05-04 15:05 616K
20260504T12Z_MSC_RDPS_WindDir_AGL-80m_RLatLon0.09_PT062H.grib2 2026-05-04 15:05 599K
20260504T12Z_MSC_RDPS_WindDir_IsbL-0001_RLatLon0.09_PT062H.grib2 2026-05-04 15:05 306K
20260504T12Z_MSC_RDPS_WindDir_IsbL-0005_RLatLon0.09_PT062H.grib2 2026-05-04 15:05 369K
20260504T12Z_MSC_RDPS_WindDir_IsbL-0010_RLatLon0.09_PT062H.grib2 2026-05-04 15:05 378K
20260504T12Z_MSC_RDPS_WindDir_IsbL-0020_RLatLon0.09_PT062H.grib2 2026-05-04 15:05 412K
20260504T12Z_MSC_RDPS_WindDir_IsbL-0030_RLatLon0.09_PT062H.grib2 2026-05-04 15:05 403K
20260504T12Z_MSC_RDPS_WindDir_IsbL-0050_RLatLon0.09_PT062H.grib2 2026-05-04 15:05 423K
20260504T12Z_MSC_RDPS_WindDir_IsbL-0100_RLatLon0.09_PT062H.grib2 2026-05-04 15:05 408K
20260504T12Z_MSC_RDPS_WindDir_IsbL-0150_RLatLon0.09_PT062H.grib2 2026-05-04 15:05 412K
20260504T12Z_MSC_RDPS_WindDir_IsbL-0175_RLatLon0.09_PT062H.grib2 2026-05-04 15:05 436K
20260504T12Z_MSC_RDPS_WindDir_IsbL-0200_RLatLon0.09_PT062H.grib2 2026-05-04 15:05 455K
20260504T12Z_MSC_RDPS_WindDir_IsbL-0225_RLatLon0.09_PT062H.grib2 2026-05-04 15:05 458K
20260504T12Z_MSC_RDPS_WindDir_IsbL-0250_RLatLon0.09_PT062H.grib2 2026-05-04 15:05 451K
20260504T12Z_MSC_RDPS_WindDir_IsbL-0275_RLatLon0.09_PT062H.grib2 2026-05-04 15:05 466K
20260504T12Z_MSC_RDPS_WindDir_IsbL-0300_RLatLon0.09_PT062H.grib2 2026-05-04 15:05 461K
20260504T12Z_MSC_RDPS_WindDir_IsbL-0350_RLatLon0.09_PT062H.grib2 2026-05-04 15:05 492K
20260504T12Z_MSC_RDPS_WindDir_IsbL-0400_RLatLon0.09_PT062H.grib2 2026-05-04 15:05 509K
20260504T12Z_MSC_RDPS_WindDir_IsbL-0450_RLatLon0.09_PT062H.grib2 2026-05-04 15:05 524K
20260504T12Z_MSC_RDPS_WindDir_IsbL-0500_RLatLon0.09_PT062H.grib2 2026-05-04 15:05 538K
20260504T12Z_MSC_RDPS_WindDir_IsbL-0550_RLatLon0.09_PT062H.grib2 2026-05-04 15:05 552K
20260504T12Z_MSC_RDPS_WindDir_IsbL-0600_RLatLon0.09_PT062H.grib2 2026-05-04 15:05 580K
20260504T12Z_MSC_RDPS_WindDir_IsbL-0650_RLatLon0.09_PT062H.grib2 2026-05-04 15:05 624K
20260504T12Z_MSC_RDPS_WindDir_IsbL-0700_RLatLon0.09_PT062H.grib2 2026-05-04 15:05 669K
20260504T12Z_MSC_RDPS_WindDir_IsbL-0750_RLatLon0.09_PT062H.grib2 2026-05-04 15:05 714K
20260504T12Z_MSC_RDPS_WindDir_IsbL-0800_RLatLon0.09_PT062H.grib2 2026-05-04 15:05 775K
20260504T12Z_MSC_RDPS_WindDir_IsbL-0850_RLatLon0.09_PT062H.grib2 2026-05-04 15:05 842K
20260504T12Z_MSC_RDPS_WindDir_IsbL-0875_RLatLon0.09_PT062H.grib2 2026-05-04 15:05 869K
20260504T12Z_MSC_RDPS_WindDir_IsbL-0900_RLatLon0.09_PT062H.grib2 2026-05-04 15:05 883K
20260504T12Z_MSC_RDPS_WindDir_IsbL-0925_RLatLon0.09_PT062H.grib2 2026-05-04 15:05 893K
20260504T12Z_MSC_RDPS_WindDir_IsbL-0950_RLatLon0.09_PT062H.grib2 2026-05-04 15:05 895K
20260504T12Z_MSC_RDPS_WindDir_IsbL-0970_RLatLon0.09_PT062H.grib2 2026-05-04 15:05 899K
20260504T12Z_MSC_RDPS_WindDir_IsbL-0985_RLatLon0.09_PT062H.grib2 2026-05-04 15:05 906K
20260504T12Z_MSC_RDPS_WindDir_IsbL-1000_RLatLon0.09_PT062H.grib2 2026-05-04 15:05 919K
20260504T12Z_MSC_RDPS_WindDir_IsbL-1015_RLatLon0.09_PT062H.grib2 2026-05-04 15:05 936K
20260504T12Z_MSC_RDPS_WindGust-Max_AGL-10m_RLatLon0.09_PT062H.grib2 2026-05-04 15:05 1.0M
20260504T12Z_MSC_RDPS_WindGust-Min_AGL-10m_RLatLon0.09_PT062H.grib2 2026-05-04 15:05 966K
20260504T12Z_MSC_RDPS_WindGust_AGL-10m_RLatLon0.09_PT062H.grib2 2026-05-04 15:05 1.0M
20260504T12Z_MSC_RDPS_WindSpeed_AGL-10m_RLatLon0.09_PT062H.grib2 2026-05-04 15:05 828K
20260504T12Z_MSC_RDPS_WindSpeed_AGL-120m_RLatLon0.09_PT062H.grib2 2026-05-04 15:05 528K
20260504T12Z_MSC_RDPS_WindSpeed_AGL-40m_RLatLon0.09_PT062H.grib2 2026-05-04 15:05 533K
20260504T12Z_MSC_RDPS_WindSpeed_AGL-80m_RLatLon0.09_PT062H.grib2 2026-05-04 15:05 530K
20260504T12Z_MSC_RDPS_WindSpeed_IsbL-0001_RLatLon0.09_PT062H.grib2 2026-05-04 15:05 252K
20260504T12Z_MSC_RDPS_WindSpeed_IsbL-0005_RLatLon0.09_PT062H.grib2 2026-05-04 15:05 292K
20260504T12Z_MSC_RDPS_WindSpeed_IsbL-0010_RLatLon0.09_PT062H.grib2 2026-05-04 15:05 397K
20260504T12Z_MSC_RDPS_WindSpeed_IsbL-0020_RLatLon0.09_PT062H.grib2 2026-05-04 15:05 420K
20260504T12Z_MSC_RDPS_WindSpeed_IsbL-0030_RLatLon0.09_PT062H.grib2 2026-05-04 15:05 317K
20260504T12Z_MSC_RDPS_WindSpeed_IsbL-0050_RLatLon0.09_PT062H.grib2 2026-05-04 15:05 347K
20260504T12Z_MSC_RDPS_WindSpeed_IsbL-0100_RLatLon0.09_PT062H.grib2 2026-05-04 15:05 433K
20260504T12Z_MSC_RDPS_WindSpeed_IsbL-0150_RLatLon0.09_PT062H.grib2 2026-05-04 15:05 399K
20260504T12Z_MSC_RDPS_WindSpeed_IsbL-0175_RLatLon0.09_PT062H.grib2 2026-05-04 15:05 424K
20260504T12Z_MSC_RDPS_WindSpeed_IsbL-0200_RLatLon0.09_PT062H.grib2 2026-05-04 15:05 441K
20260504T12Z_MSC_RDPS_WindSpeed_IsbL-0225_RLatLon0.09_PT062H.grib2 2026-05-04 15:05 443K
20260504T12Z_MSC_RDPS_WindSpeed_IsbL-0250_RLatLon0.09_PT062H.grib2 2026-05-04 15:05 443K
20260504T12Z_MSC_RDPS_WindSpeed_IsbL-0275_RLatLon0.09_PT062H.grib2 2026-05-04 15:05 462K
20260504T12Z_MSC_RDPS_WindSpeed_IsbL-0300_RLatLon0.09_PT062H.grib2 2026-05-04 15:05 460K
20260504T12Z_MSC_RDPS_WindSpeed_IsbL-0350_RLatLon0.09_PT062H.grib2 2026-05-04 15:05 475K
20260504T12Z_MSC_RDPS_WindSpeed_IsbL-0400_RLatLon0.09_PT062H.grib2 2026-05-04 15:05 460K
20260504T12Z_MSC_RDPS_WindSpeed_IsbL-0450_RLatLon0.09_PT062H.grib2 2026-05-04 15:05 459K
20260504T12Z_MSC_RDPS_WindSpeed_IsbL-0500_RLatLon0.09_PT062H.grib2 2026-05-04 15:05 575K
20260504T12Z_MSC_RDPS_WindSpeed_IsbL-0550_RLatLon0.09_PT062H.grib2 2026-05-04 15:05 576K
20260504T12Z_MSC_RDPS_WindSpeed_IsbL-0600_RLatLon0.09_PT062H.grib2 2026-05-04 15:05 585K
20260504T12Z_MSC_RDPS_WindSpeed_IsbL-0650_RLatLon0.09_PT062H.grib2 2026-05-04 15:05 606K
20260504T12Z_MSC_RDPS_WindSpeed_IsbL-0700_RLatLon0.09_PT062H.grib2 2026-05-04 15:05 674K
20260504T12Z_MSC_RDPS_WindSpeed_IsbL-0750_RLatLon0.09_PT062H.grib2 2026-05-04 15:05 704K
20260504T12Z_MSC_RDPS_WindSpeed_IsbL-0800_RLatLon0.09_PT062H.grib2 2026-05-04 15:05 752K
20260504T12Z_MSC_RDPS_WindSpeed_IsbL-0850_RLatLon0.09_PT062H.grib2 2026-05-04 15:05 812K
20260504T12Z_MSC_RDPS_WindSpeed_IsbL-0875_RLatLon0.09_PT062H.grib2 2026-05-04 15:05 834K
20260504T12Z_MSC_RDPS_WindSpeed_IsbL-0900_RLatLon0.09_PT062H.grib2 2026-05-04 15:05 848K
20260504T12Z_MSC_RDPS_WindSpeed_IsbL-0925_RLatLon0.09_PT062H.grib2 2026-05-04 15:05 860K
20260504T12Z_MSC_RDPS_WindSpeed_IsbL-0950_RLatLon0.09_PT062H.grib2 2026-05-04 15:05 860K
20260504T12Z_MSC_RDPS_WindSpeed_IsbL-0970_RLatLon0.09_PT062H.grib2 2026-05-04 15:05 858K
20260504T12Z_MSC_RDPS_WindSpeed_IsbL-0985_RLatLon0.09_PT062H.grib2 2026-05-04 15:05 847K
20260504T12Z_MSC_RDPS_WindSpeed_IsbL-1000_RLatLon0.09_PT062H.grib2 2026-05-04 15:05 839K
20260504T12Z_MSC_RDPS_WindSpeed_IsbL-1015_RLatLon0.09_PT062H.grib2 2026-05-04 15:05 829K
20260504T12Z_MSC_RDPS_WindU_AGL-10m_RLatLon0.09_PT062H.grib2 2026-05-04 15:05 426K
20260504T12Z_MSC_RDPS_WindU_AGL-120m_RLatLon0.09_PT062H.grib2 2026-05-04 15:05 528K
20260504T12Z_MSC_RDPS_WindU_AGL-40m_RLatLon0.09_PT062H.grib2 2026-05-04 15:05 532K
20260504T12Z_MSC_RDPS_WindU_AGL-80m_RLatLon0.09_PT062H.grib2 2026-05-04 15:05 530K
20260504T12Z_MSC_RDPS_WindU_IsbL-0001_RLatLon0.09_PT062H.grib2 2026-05-04 15:05 242K
20260504T12Z_MSC_RDPS_WindU_IsbL-0005_RLatLon0.09_PT062H.grib2 2026-05-04 15:05 327K
20260504T12Z_MSC_RDPS_WindU_IsbL-0010_RLatLon0.09_PT062H.grib2 2026-05-04 15:05 297K
20260504T12Z_MSC_RDPS_WindU_IsbL-0020_RLatLon0.09_PT062H.grib2 2026-05-04 15:05 315K
20260504T12Z_MSC_RDPS_WindU_IsbL-0030_RLatLon0.09_PT062H.grib2 2026-05-04 15:05 350K
20260504T12Z_MSC_RDPS_WindU_IsbL-0050_RLatLon0.09_PT062H.grib2 2026-05-04 15:05 377K
20260504T12Z_MSC_RDPS_WindU_IsbL-0100_RLatLon0.09_PT062H.grib2 2026-05-04 15:05 332K
20260504T12Z_MSC_RDPS_WindU_IsbL-0150_RLatLon0.09_PT062H.grib2 2026-05-04 15:05 393K
20260504T12Z_MSC_RDPS_WindU_IsbL-0175_RLatLon0.09_PT062H.grib2 2026-05-04 15:05 417K
20260504T12Z_MSC_RDPS_WindU_IsbL-0200_RLatLon0.09_PT062H.grib2 2026-05-04 15:05 336K
20260504T12Z_MSC_RDPS_WindU_IsbL-0225_RLatLon0.09_PT062H.grib2 2026-05-04 15:05 338K
20260504T12Z_MSC_RDPS_WindU_IsbL-0250_RLatLon0.09_PT062H.grib2 2026-05-04 15:05 336K
20260504T12Z_MSC_RDPS_WindU_IsbL-0275_RLatLon0.09_PT062H.grib2 2026-05-04 15:05 351K
20260504T12Z_MSC_RDPS_WindU_IsbL-0300_RLatLon0.09_PT062H.grib2 2026-05-04 15:05 348K
20260504T12Z_MSC_RDPS_WindU_IsbL-0350_RLatLon0.09_PT062H.grib2 2026-05-04 15:05 359K
20260504T12Z_MSC_RDPS_WindU_IsbL-0400_RLatLon0.09_PT062H.grib2 2026-05-04 15:05 362K
20260504T12Z_MSC_RDPS_WindU_IsbL-0450_RLatLon0.09_PT062H.grib2 2026-05-04 15:05 464K
20260504T12Z_MSC_RDPS_WindU_IsbL-0500_RLatLon0.09_PT062H.grib2 2026-05-04 15:05 464K
20260504T12Z_MSC_RDPS_WindU_IsbL-0550_RLatLon0.09_PT062H.grib2 2026-05-04 15:05 465K
20260504T12Z_MSC_RDPS_WindU_IsbL-0600_RLatLon0.09_PT062H.grib2 2026-05-04 15:05 474K
20260504T12Z_MSC_RDPS_WindU_IsbL-0650_RLatLon0.09_PT062H.grib2 2026-05-04 15:05 492K
20260504T12Z_MSC_RDPS_WindU_IsbL-0700_RLatLon0.09_PT062H.grib2 2026-05-04 15:05 514K
20260504T12Z_MSC_RDPS_WindU_IsbL-0750_RLatLon0.09_PT062H.grib2 2026-05-04 15:05 540K
20260504T12Z_MSC_RDPS_WindU_IsbL-0800_RLatLon0.09_PT062H.grib2 2026-05-04 15:05 567K
20260504T12Z_MSC_RDPS_WindU_IsbL-0850_RLatLon0.09_PT062H.grib2 2026-05-04 15:05 629K
20260504T12Z_MSC_RDPS_WindU_IsbL-0875_RLatLon0.09_PT062H.grib2 2026-05-04 15:05 638K
20260504T12Z_MSC_RDPS_WindU_IsbL-0900_RLatLon0.09_PT062H.grib2 2026-05-04 15:05 649K
20260504T12Z_MSC_RDPS_WindU_IsbL-0925_RLatLon0.09_PT062H.grib2 2026-05-04 15:05 657K
20260504T12Z_MSC_RDPS_WindU_IsbL-0950_RLatLon0.09_PT062H.grib2 2026-05-04 15:05 654K
20260504T12Z_MSC_RDPS_WindU_IsbL-0970_RLatLon0.09_PT062H.grib2 2026-05-04 15:05 650K
20260504T12Z_MSC_RDPS_WindU_IsbL-0985_RLatLon0.09_PT062H.grib2 2026-05-04 15:05 645K
20260504T12Z_MSC_RDPS_WindU_IsbL-1000_RLatLon0.09_PT062H.grib2 2026-05-04 15:05 777K
20260504T12Z_MSC_RDPS_WindU_IsbL-1015_RLatLon0.09_PT062H.grib2 2026-05-04 15:05 770K
20260504T12Z_MSC_RDPS_WindV_AGL-10m_RLatLon0.09_PT062H.grib2 2026-05-04 15:05 423K
20260504T12Z_MSC_RDPS_WindV_AGL-120m_RLatLon0.09_PT062H.grib2 2026-05-04 15:05 525K
20260504T12Z_MSC_RDPS_WindV_AGL-40m_RLatLon0.09_PT062H.grib2 2026-05-04 15:05 528K
20260504T12Z_MSC_RDPS_WindV_AGL-80m_RLatLon0.09_PT062H.grib2 2026-05-04 15:05 526K
20260504T12Z_MSC_RDPS_WindV_IsbL-0001_RLatLon0.09_PT062H.grib2 2026-05-04 15:05 244K
20260504T12Z_MSC_RDPS_WindV_IsbL-0005_RLatLon0.09_PT062H.grib2 2026-05-04 15:05 287K
20260504T12Z_MSC_RDPS_WindV_IsbL-0010_RLatLon0.09_PT062H.grib2 2026-05-04 15:05 299K
20260504T12Z_MSC_RDPS_WindV_IsbL-0020_RLatLon0.09_PT062H.grib2 2026-05-04 15:05 318K
20260504T12Z_MSC_RDPS_WindV_IsbL-0030_RLatLon0.09_PT062H.grib2 2026-05-04 15:05 314K
20260504T12Z_MSC_RDPS_WindV_IsbL-0050_RLatLon0.09_PT062H.grib2 2026-05-04 15:05 341K
20260504T12Z_MSC_RDPS_WindV_IsbL-0100_RLatLon0.09_PT062H.grib2 2026-05-04 15:05 328K
20260504T12Z_MSC_RDPS_WindV_IsbL-0150_RLatLon0.09_PT062H.grib2 2026-05-04 15:05 390K
20260504T12Z_MSC_RDPS_WindV_IsbL-0175_RLatLon0.09_PT062H.grib2 2026-05-04 15:05 415K
20260504T12Z_MSC_RDPS_WindV_IsbL-0200_RLatLon0.09_PT062H.grib2 2026-05-04 15:05 432K
20260504T12Z_MSC_RDPS_WindV_IsbL-0225_RLatLon0.09_PT062H.grib2 2026-05-04 15:05 336K
20260504T12Z_MSC_RDPS_WindV_IsbL-0250_RLatLon0.09_PT062H.grib2 2026-05-04 15:05 335K
20260504T12Z_MSC_RDPS_WindV_IsbL-0275_RLatLon0.09_PT062H.grib2 2026-05-04 15:05 350K
20260504T12Z_MSC_RDPS_WindV_IsbL-0300_RLatLon0.09_PT062H.grib2 2026-05-04 15:05 347K
20260504T12Z_MSC_RDPS_WindV_IsbL-0350_RLatLon0.09_PT062H.grib2 2026-05-04 15:05 359K
20260504T12Z_MSC_RDPS_WindV_IsbL-0400_RLatLon0.09_PT062H.grib2 2026-05-04 15:05 361K
20260504T12Z_MSC_RDPS_WindV_IsbL-0450_RLatLon0.09_PT062H.grib2 2026-05-04 15:05 462K
20260504T12Z_MSC_RDPS_WindV_IsbL-0500_RLatLon0.09_PT062H.grib2 2026-05-04 15:05 462K
20260504T12Z_MSC_RDPS_WindV_IsbL-0550_RLatLon0.09_PT062H.grib2 2026-05-04 15:05 463K
20260504T12Z_MSC_RDPS_WindV_IsbL-0600_RLatLon0.09_PT062H.grib2 2026-05-04 15:05 471K
20260504T12Z_MSC_RDPS_WindV_IsbL-0650_RLatLon0.09_PT062H.grib2 2026-05-04 15:05 489K
20260504T12Z_MSC_RDPS_WindV_IsbL-0700_RLatLon0.09_PT062H.grib2 2026-05-04 15:05 511K
20260504T12Z_MSC_RDPS_WindV_IsbL-0750_RLatLon0.09_PT062H.grib2 2026-05-04 15:05 521K
20260504T12Z_MSC_RDPS_WindV_IsbL-0800_RLatLon0.09_PT062H.grib2 2026-05-04 15:05 562K
20260504T12Z_MSC_RDPS_WindV_IsbL-0850_RLatLon0.09_PT062H.grib2 2026-05-04 15:05 613K
20260504T12Z_MSC_RDPS_WindV_IsbL-0875_RLatLon0.09_PT062H.grib2 2026-05-04 15:05 633K
20260504T12Z_MSC_RDPS_WindV_IsbL-0900_RLatLon0.09_PT062H.grib2 2026-05-04 15:05 645K
20260504T12Z_MSC_RDPS_WindV_IsbL-0925_RLatLon0.09_PT062H.grib2 2026-05-04 15:05 653K
20260504T12Z_MSC_RDPS_WindV_IsbL-0950_RLatLon0.09_PT062H.grib2 2026-05-04 15:05 650K
20260504T12Z_MSC_RDPS_WindV_IsbL-0970_RLatLon0.09_PT062H.grib2 2026-05-04 15:05 787K
20260504T12Z_MSC_RDPS_WindV_IsbL-0985_RLatLon0.09_PT062H.grib2 2026-05-04 15:05 780K
20260504T12Z_MSC_RDPS_WindV_IsbL-1000_RLatLon0.09_PT062H.grib2 2026-05-04 15:05 772K
20260504T12Z_MSC_RDPS_WindV_IsbL-1015_RLatLon0.09_PT062H.grib2 2026-05-04 15:05 810K